Regional Weather Roundup
Issued by NWS

Home | Current Version | Previous Version | Graphics & Text | Print | Product List | Glossary On
Versions: 1 2 3 4 5 6 7 8 9 10 11 12 13 14 15 16 17 18 19 20 21 22 23 24 25 26 27 28 29 30 31 32 33 34 35 36 37 38 39 40 41 42 43 44 45 46 47 48 49 50
592
ASUS43 KBIS 231010
RWRND

NORTH DAKOTA REGIONAL WEATHER ROUNDUP
NATIONAL WEATHER SERVICE BISMARCK ND
400 AM CST MON JAN 23 2017

NOTE: "FAIR" INDICATES FEW OR NO CLOUDS BELOW 12,000 FEET WITH NO
SIGNIFICANT WEATHER AND/OR OBSTRUCTIONS TO VISIBILITY.


NDZ001>003-009>011-017-231100-
NORTHWEST NORTH DAKOTA

CITY           SKY/WX    TMP DP  RH WIND       PRES   REMARKS
WILLISTON      CLOUDY    27  24  89 CALM      29.77F
MINOT          CLOUDY    28  21  75 W14       29.77F WCI  17
MINOT AFB      CLOUDY    26  21  81 W9        29.76F WCI  17
$$

NDZ018>021-031>035-040>046-231100-
SOUTHWEST NORTH DAKOTA

CITY           SKY/WX    TMP DP  RH WIND       PRES   REMARKS
BISMARCK       CLOUDY    30  23  75 W3        29.81F
DICKINSON      CLOUDY    24  19  81 CALM      29.75S
GARRISON         N/A     27  22  81 NW9       29.78F WCI  18
HETTINGER ARPT FOG       23  21  92 E3        29.78F VSB 3/4
$$

NDZ004>008-012>016-024-026-027-054-231100-
NORTHEAST NORTH DAKOTA

CITY           SKY/WX    TMP DP  RH WIND       PRES   REMARKS
GRAND FORKS    CLOUDY    33  27  78 W5        29.77S
GRND FRKS AFB  CLOUDY    32  27  83 W12       29.77S
DEVILS LAKE    CLOUDY    29  26  89 W10       29.77R WCI  20
$$

NDZ022-023-025-028>030-036>039-047>053-231100-
SOUTHEAST NORTH DAKOTA

CITY           SKY/WX    TMP DP  RH WIND       PRES   REMARKS
FARGO          CLOUDY    35  29  78 W13       29.80S
JAMESTOWN      CLOUDY    30  25  81 W8        29.79S
$$





USA.gov is the U.S. government's official web portal to all federal, state and local government web resources and services.